[[{"header":{"parameterUnit":"m.s-1","parameterCategory":1,"la1":30.2991,"la2":30.254,"lo1":-89.0895,"lo2":-89.0444,"dy":0.0017,"dx":0.0017,"nx":28,"ny":28,"refTime":"2023-10-12T21:00:00:Z","depth":0,"parameterNumber":2,"parameterNumberName":"U-component_of_WINDS"},"data":[0,0,0,0,0,0,0,0,0,0,0,0,0,0,0,0,0,0,0,0,0,0,0,0,0,0,0,0,0,0,0,0,0,0,0,0,0,0,0,0,0,0,0,0,0,0,0,0,0,0,0,0,0,0,0,0,0,0,4.6803,4.6803,0,4.6789,4.6789,4.6788,4.6739,4.6738,4.6737,4.6736,4.6722,4.6723,4.6724,0,0,0,0,0,0,0,0,0,0,0,0,0,4.6792,4.6793,4.6803,4.6803,4.6803,4.6789,4.6789,4.6788,4.6739,4.6738,4.6736,4.6735,4.6722,4.6723,4.6724,0,0,0,0,0,0,0,0,0,0,0,0,0,4.6789,4.6793,4.6803,4.6776,4.6774,4.6789,4.6789,4.6788,4.6739,4.6738,4.6736,4.6734,4.6722,4.6723,4.6724,4.6764,0,0,4.6727,4.6727,0,0,0,0,0,0,0,0,4.679,4.679,4.6781,4.6778,4.6776,4.6764,4.678,4.678,4.674,4.6753,4.6736,4.6734,4.6738,4.6737,4.6738,4.6763,4.6762,4.6727,4.6728,4.6728,4.6728,0,0,0,0,0,0,0,4.679,4.679,4.6797,4.6781,4.6777,4.6767,4.6764,4.678,4.6755,4.6751,4.6748,4.6747,4.6736,4.6737,4.6737,4.6762,4.6727,4.6728,4.6728,4.6729,4.6825,4.6827,0,0,0,0,0,0,4.6793,4.6791,4.6798,4.6797,4.6779,4.6768,4.6766,4.6769,4.6754,4.675,4.6748,4.6744,4.6736,4.6736,4.6737,4.6787,4.6728,4.6729,4.673,4.6823,4.6826,4.6828,0,0,0,0,0,0,4.6793,4.6795,4.6798,4.6793,4.6793,4.677,4.6775,4.677,4.6771,4.6752,4.6747,4.6754,4.6735,4.6735,4.6759,4.6785,4.6729,4.673,4.6821,4.6824,4.6827,4.6884,0,0,0,0,0,0,4.6793,4.6795,4.6808,4.6794,4.6793,4.6819,4.6776,4.6771,4.6773,4.6768,4.6756,4.6753,4.6734,4.6757,4.676,4.6786,4.6731,4.6819,4.6822,4.6826,4.688,4.6888,4.6896,0,0,0,0,0,4.6793,4.6824,4.6809,4.681,4.6809,4.6821,4.682,4.6798,4.6775,4.679,4.6778,4.6753,4.6782,4.676,4.6762,4.6789,4.6817,4.6821,4.6825,4.6876,4.6887,4.6896,0,0,0,0,0,0,4.6841,4.6821,4.6805,4.6832,4.6829,4.6812,4.683,4.6809,4.6812,4.6808,4.678,4.6778,4.6806,4.6799,4.6776,4.683,4.6795,4.68,4.6833,4.6843,4.6851,4.6853,4.6732,0,0,0,0,0,4.6856,4.6865,4.6847,4.6873,4.6873,4.6852,4.6856,4.6839,4.6835,4.6833,4.6822,4.682,4.6829,4.6835,4.6842,4.6878,4.6877,4.6898,4.6906,4.6913,4.6919,4.6942,4.6953,4.6842,4.6842,4.6842,0,0,4.6884,4.6874,4.6882,4.6883,4.6878,4.6892,4.6851,4.6865,4.6875,4.6835,4.6857,4.685,4.6846,4.6877,4.689,4.6873,4.6949,4.6919,4.6925,4.6926,4.6948,4.6959,4.6968,4.6845,4.6845,4.6844,0,0,4.6944,4.6936,4.6959,4.6956,4.695,4.6937,4.6943,4.6931,4.6925,4.6947,4.6919,4.6931,4.6945,4.6945,4.6947,4.7012,4.6991,4.7015,4.7059,4.7082,4.7091,4.7099,4.7126,4.7135,4.702,4.702,4.702,0,4.698,4.6998,4.6973,4.6991,4.6994,4.6959,4.6984,4.6982,4.6979,4.6983,4.6963,4.6985,4.6979,4.7012,4.7029,4.703,4.7038,4.7017,4.7091,4.7099,4.7106,4.7131,4.7141,4.7023,4.7023,4.7023,4.7022,0,4.7045,4.7058,4.7077,4.7077,4.7082,4.7103,4.7084,4.7092,4.7076,4.7066,4.7092,4.7084,4.7091,4.7097,4.7081,4.713,4.712,4.7096,4.7061,4.712,4.7144,4.7153,4.7028,4.7027,4.7026,4.7025,0,0,4.7133,4.7122,4.7129,4.7131,4.7124,4.7135,4.7156,4.7164,4.7173,4.7173,4.7193,4.7209,4.7188,4.719,4.7174,4.7194,4.7252,4.7169,4.7168,4.7188,4.7311,4.7331,4.7342,4.7237,4.7239,4.724,4.7313,0,4.7192,4.7228,4.7208,4.7247,4.7262,4.7231,4.725,4.725,4.7242,4.7254,4.7245,4.7259,4.7228,4.7231,4.7249,4.7241,4.7277,4.7235,4.7258,4.7259,4.7263,4.7354,4.7374,4.7442,4.7321,4.7323,4.7324,0,4.7266,4.7271,4.7312,4.7308,4.7313,4.733,4.7338,4.7349,4.735,4.7343,4.7348,4.7328,4.7352,4.7317,4.7351,4.7324,4.7332,4.733,4.7332,4.7335,4.7297,4.7363,4.7463,4.7475,4.7338,4.7337,4.7336,0,4.7331,4.7348,4.7376,4.7378,4.7372,4.7386,4.7384,4.7383,4.739,4.7398,4.7403,4.7413,4.7419,4.7428,4.7413,4.7388,4.7452,4.7414,4.7449,4.745,4.7465,4.7464,4.7571,4.7466,4.7466,4.7466,4.7465,0,4.7401,4.7428,4.7406,4.7423,4.7454,4.7433,4.7465,4.746,4.746,4.7478,4.7451,4.7469,4.7447,4.7463,4.7452,4.7485,4.7487,4.7484,4.7481,4.7488,4.7489,4.7494,4.749,4.7468,4.7468,4.7467,4.7467,0,4.7479,4.7464,4.7494,4.7487,4.7486,4.751,4.7505,4.7523,4.7514,4.7537,4.7542,4.7529,4.7547,4.7533,4.755,4.7543,4.7588,4.7576,4.7588,4.7586,4.7624,4.7622,4.7739,4.7756,4.7638,4.7639,4.764,0,4.7525,4.7546,4.7543,4.7553,4.7554,4.757,4.7579,4.756,4.757,4.7575,4.7592,4.7609,4.7621,4.7653,4.7646,4.7661,4.7652,4.7692,4.7654,4.7662,4.7657,4.7657,4.7661,4.7701,4.7702,4.7703,4.7704,0,4.7611,4.7605,4.7617,4.7629,4.7641,4.7649,4.7655,4.7665,4.7646,4.766,4.7679,4.7689,4.7708,4.7727,4.774,4.774,4.7721,4.7716,4.7726,4.7734,4.7742,4.7742,4.7613,4.7714,4.7713,4.7712,4.7712,4.7711,4.7677,4.7696,4.7698,4.7715,4.7718,4.7726,4.7743,4.7738,4.7754,4.7769,4.7757,4.7781,4.7785,4.7801,4.7805,4.7825,4.7808,4.7821,4.7825,4.7829,4.7837,4.7737,4.7827,4.7826,4.7826,4.7826,4.7826,0,4.7765,4.7766,4.7781,4.7793,4.7807,4.7787,4.7794,4.7808,4.7829,4.7835,4.7848,4.7873,4.7892,4.7888,4.7906,4.7923,4.7915,4.7929,4.7928,4.793,4.7848,4.784,4.7935,4.7935,4.7935,4.7935,4.7935,4.7935,4.7813,4.7845,4.784,4.7875,4.7875,4.7899,4.7906,4.7914,4.7919,4.7948,4.7963,4.7961,4.7964,4.7982,4.8,4.7999,4.8008,4.8026,4.8022,4.7946,4.7935,4.7925,4.7917,4.8027,4.8027,4.8102,4.8103,4.8103]},{"header":{"parameterUnit":"m.s-1","parameterCategory":1,"la1":30.2991,"la2":30.254,"lo1":-89.0895,"lo2":-89.0444,"dy":0.0017,"dx":0.0017,"nx":28,"ny":28,"refTime":"2023-10-12T21:00:00:Z","depth":0,"parameterNumber":3,"parameterNumberName":"V-component_of_WINDS"},"data":[0,0,0,0,0,0,0,0,0,0,0,0,0,0,0,0,0,0,0,0,0,0,0,0,0,0,0,0,0,0,0,0,0,0,0,0,0,0,0,0,0,0,0,0,0,0,0,0,0,0,0,0,0,0,0,0,0,0,0.3813,0.3816,0,0.4084,0.4087,0.409,0.4123,0.4121,0.4118,0.4116,0.4404,0.4414,0.4424,0,0,0,0,0,0,0,0,0,0,0,0,0,0.3335,0.3344,0.3813,0.3816,0.382,0.4083,0.4087,0.4091,0.4124,0.4121,0.4117,0.4114,0.44,0.4412,0.4425,0,0,0,0,0,0,0,0,0,0,0,0,0,0.3568,0.3347,0.3812,0.3868,0.3875,0.4082,0.4087,0.4092,0.4125,0.4121,0.4117,0.4113,0.4396,0.4411,0.4426,0.46,0,0,0.4473,0.4479,0,0,0,0,0,0,0,0,0.3555,0.3586,0.3856,0.3864,0.3873,0.4065,0.4024,0.4263,0.4126,0.403,0.4115,0.4111,0.4295,0.4318,0.4378,0.4614,0.4626,0.4474,0.4483,0.449,0.4494,0,0,0,0,0,0,0,0.3539,0.3574,0.3921,0.386,0.3871,0.3883,0.3911,0.407,0.4182,0.4038,0.4041,0.4072,0.4299,0.4364,0.4385,0.463,0.4474,0.4487,0.4497,0.4503,0.5023,0.5027,0,0,0,0,0,0,0.3511,0.3561,0.3912,0.3929,0.3701,0.3894,0.3926,0.4008,0.4181,0.4203,0.4075,0.4073,0.434,0.4368,0.4396,0.4611,0.449,0.4504,0.4513,0.5018,0.5024,0.5029,0,0,0,0,0,0,0.3501,0.3542,0.3901,0.3746,0.3792,0.3907,0.3998,0.4015,0.408,0.4208,0.423,0.412,0.4338,0.4374,0.4548,0.4621,0.4511,0.4525,0.5013,0.502,0.5026,0.5042,0,0,0,0,0,0,0.3487,0.3538,0.3603,0.3747,0.38,0.4046,0.4003,0.4024,0.4105,0.4104,0.4256,0.4277,0.4337,0.4525,0.4564,0.464,0.4537,0.5007,0.5016,0.5024,0.5036,0.5049,0.506,0,0,0,0,0,0.347,0.3599,0.3606,0.3648,0.3883,0.405,0.4081,0.4144,0.411,0.4178,0.4261,0.4272,0.4607,0.4543,0.4586,0.4669,0.5002,0.5013,0.5023,0.503,0.5046,0.506,0,0,0,0,0,0,0.3466,0.3619,0.3628,0.3808,0.3915,0.4055,0.4143,0.416,0.4282,0.4277,0.4353,0.4387,0.4558,0.4631,0.4557,0.4846,0.4802,0.4821,0.4792,0.4809,0.482,0.48,0.4549,0,0,0,0,0,0.3484,0.3604,0.3733,0.3879,0.3932,0.4028,0.4103,0.4142,0.4258,0.4305,0.44,0.4516,0.4647,0.4732,0.4859,0.5046,0.5081,0.5124,0.5136,0.5146,0.5162,0.5267,0.5288,0.5063,0.5063,0.5063,0,0,0.3527,0.3626,0.3697,0.3881,0.3969,0.4093,0.4066,0.42,0.4294,0.4327,0.4496,0.457,0.4704,0.4884,0.4969,0.4951,0.5231,0.5159,0.5165,0.5177,0.528,0.5301,0.532,0.507,0.5069,0.5068,0,0,0.3668,0.3754,0.3884,0.3972,0.4104,0.4167,0.4198,0.4336,0.4385,0.4555,0.4581,0.4697,0.492,0.5014,0.5092,0.5266,0.5282,0.5306,0.5371,0.5472,0.5489,0.5506,0.5569,0.559,0.5322,0.5322,0.5322,0,0.3705,0.3891,0.3951,0.4083,0.4163,0.4194,0.4328,0.4412,0.458,0.4637,0.4613,0.4893,0.4986,0.5189,0.5231,0.5292,0.5332,0.529,0.5481,0.5498,0.5514,0.5575,0.5599,0.5324,0.5324,0.5324,0.5324,0,0.393,0.4059,0.4149,0.4306,0.4397,0.453,0.4613,0.4698,0.4729,0.4795,0.4969,0.508,0.523,0.5282,0.5315,0.549,0.5475,0.5465,0.5422,0.5536,0.5595,0.5619,0.5327,0.5326,0.5326,0.5325,0,0,0.4078,0.4264,0.4297,0.4368,0.4515,0.4618,0.4752,0.4896,0.4968,0.5083,0.52,0.5387,0.5379,0.5466,0.551,0.5599,0.5731,0.5579,0.5583,0.5604,0.5932,0.5938,0.5964,0.5741,0.5746,0.575,0.5921,0,0.4236,0.4473,0.453,0.4735,0.4855,0.4885,0.5003,0.5108,0.5173,0.5287,0.5361,0.5492,0.5471,0.5524,0.5613,0.5695,0.5798,0.5684,0.5853,0.5859,0.5819,0.5995,0.6003,0.6159,0.5944,0.5948,0.5951,0,0.4453,0.4568,0.4782,0.4913,0.4966,0.507,0.5206,0.5313,0.5434,0.5475,0.5571,0.5606,0.5751,0.5699,0.59,0.5821,0.5894,0.5945,0.5953,0.5972,0.5912,0.602,0.621,0.6234,0.5988,0.5985,0.5982,0,0.4539,0.4748,0.4904,0.4964,0.512,0.5193,0.5262,0.5377,0.546,0.558,0.5634,0.5771,0.5846,0.5952,0.6024,0.5979,0.622,0.6174,0.626,0.6259,0.6311,0.6307,0.6516,0.6356,0.6355,0.6355,0.6355,0,0.471,0.4841,0.4944,0.504,0.5188,0.5254,0.5399,0.547,0.5572,0.5684,0.572,0.5825,0.5913,0.6031,0.6089,0.6247,0.6281,0.632,0.6334,0.6318,0.6313,0.6367,0.6359,0.6361,0.636,0.6359,0.6358,0,0.4832,0.4906,0.5078,0.521,0.5246,0.535,0.5465,0.556,0.5625,0.5767,0.5804,0.5908,0.6049,0.613,0.6309,0.6347,0.6524,0.6532,0.6482,0.6488,0.657,0.6561,0.6823,0.6861,0.6674,0.6676,0.6677,0,0.4937,0.5037,0.5179,0.5254,0.5323,0.5445,0.5528,0.5598,0.5683,0.5827,0.5906,0.6047,0.6165,0.6389,0.6482,0.6619,0.6632,0.6714,0.6653,0.6633,0.6634,0.6627,0.6638,0.6725,0.6727,0.6728,0.6729,0,0.5114,0.5146,0.5262,0.5391,0.5488,0.5594,0.57,0.5761,0.5849,0.5943,0.6085,0.6176,0.6356,0.6497,0.6641,0.6716,0.6739,0.6747,0.6775,0.6759,0.6726,0.6745,0.6511,0.6741,0.674,0.6739,0.6739,0.6738,0.5232,0.5322,0.5435,0.5564,0.565,0.5747,0.5843,0.5919,0.6037,0.6186,0.6221,0.6371,0.649,0.6685,0.6763,0.6883,0.6869,0.6909,0.6919,0.6928,0.6931,0.6705,0.691,0.691,0.6909,0.6909,0.6909,0,0.5412,0.5485,0.5602,0.5747,0.5849,0.5856,0.5973,0.6059,0.6189,0.6295,0.6409,0.6572,0.6709,0.6812,0.6953,0.703,0.7043,0.7064,0.706,0.7077,0.6935,0.6897,0.7051,0.7051,0.7051,0.7051,0.7051,0.7051,0.5517,0.567,0.5715,0.5912,0.5986,0.613,0.6196,0.6287,0.6373,0.6552,0.6664,0.6729,0.6836,0.6984,0.7111,0.7138,0.7189,0.7208,0.7237,0.7102,0.7087,0.7073,0.7038,0.7218,0.7218,0.7369,0.7371,0.7372]}]]